TimeMDT,TemperatureF,Dew PointF,Humidity,Sea Level PressureIn,VisibilityMPH,Wind Direction,Wind SpeedMPH,Gust SpeedMPH,PrecipitationIn,Events,Conditions,WindDirDegrees,DateUTC
12:15 AM,29.7,25.7,85,29.98,10.0,WSW,3.5,-,N/A,,Overcast,240,2013-03-10 07:15:00
12:35 AM,29.7,25.7,85,29.97,10.0,Calm,Calm,-,N/A,,Overcast,0,2013-03-10 07:35:00
12:55 AM,30.2,25.5,83,29.97,10.0,Calm,Calm,-,N/A,,Scattered Clouds,0,2013-03-10 07:55:00
1:15 AM,29.3,25.5,86,29.99,10.0,WNW,3.5,-,N/A,,Clear,300,2013-03-10 08:15:00
1:35 AM,29.3,25.2,85,29.99,10.0,Calm,Calm,-,N/A,,Clear,0,2013-03-10 08:35:00
1:55 AM,28.9,25.2,86,29.98,10.0,Calm,Calm,-,N/A,,Clear,0,2013-03-10 08:55:00
3:15 AM,29.7,24.8,82,29.97,10.0,WSW,3.5,-,N/A,,Clear,250,2013-03-10 09:15:00
3:35 AM,28.9,24.8,84,29.97,10.0,WSW,4.6,-,N/A,,Clear,250,2013-03-10 09:35:00
3:55 AM,28.6,24.6,85,29.97,10.0,Calm,Calm,-,N/A,,Clear,0,2013-03-10 09:55:00
4:15 AM,28.9,24.8,84,29.97,10.0,Calm,Calm,-,N/A,,Clear,0,2013-03-10 10:15:00
4:35 AM,27.5,24.8,90,29.98,10.0,Calm,Calm,-,N/A,,Clear,0,2013-03-10 10:35:00
4:55 AM,27.5,26.1,94,29.99,10.0,Calm,Calm,-,N/A,,Clear,0,2013-03-10 10:55:00
5:15 AM,27.9,26.1,93,29.99,10.0,NW,3.5,-,N/A,,Mostly Cloudy,320,2013-03-10 11:15:00
6:35 AM,27.1,25.5,94,30.02,10.0,NNW,4.6,-,N/A,,Overcast,340,2013-03-10 12:35:00
6:55 AM,27.7,25.7,92,30.03,10.0,Calm,Calm,-,N/A,,Overcast,0,2013-03-10 12:55:00
7:15 AM,27.5,25.3,92,30.04,10.0,NW,3.5,-,N/A,,Overcast,310,2013-03-10 13:15:00
7:35 AM,28.0,24.8,88,30.06,10.0,Calm,Calm,-,N/A,,Overcast,0,2013-03-10 13:35:00
7:55 AM,28.2,24.8,87,30.06,10.0,Calm,Calm,-,N/A,,Overcast,0,2013-03-10 13:55:00
8:15 AM,28.4,25.2,88,30.07,10.0,Calm,Calm,-,N/A,,Overcast,0,2013-03-10 14:15:00
8:35 AM,28.2,25.7,90,30.08,10.0,NE,3.5,-,N/A,,Overcast,50,2013-03-10 14:35:00
8:55 AM,28.0,24.8,88,30.08,7.0,North,3.5,-,N/A,,Overcast,360,2013-03-10 14:55:00
9:15 AM,27.7,24.3,87,30.09,7.0,NNE,6.9,-,N/A,,Overcast,30,2013-03-10 15:15:00
9:35 AM,27.5,23.2,84,30.09,10.0,North,5.8,-,N/A,,Overcast,10,2013-03-10 15:35:00
9:55 AM,28.0,22.1,78,30.10,10.0,Calm,Calm,-,N/A,,Overcast,0,2013-03-10 15:55:00
10:15 AM,29.5,21.7,73,30.10,10.0,NNE,6.9,-,N/A,,Overcast,20,2013-03-10 16:15:00
10:35 AM,30.2,21.0,69,30.10,10.0,NE,3.5,-,N/A,,Mostly Cloudy,40,2013-03-10 16:35:00
10:55 AM,30.4,21.0,68,30.10,10.0,ENE,3.5,-,N/A,,Overcast,70,2013-03-10 16:55:00
11:15 AM,31.5,21.0,65,30.10,10.0,NE,6.9,-,N/A,,Overcast,50,2013-03-10 17:15:00
11:35 AM,31.8,21.4,65,30.10,7.0,ENE,3.5,-,N/A,,Overcast,70,2013-03-10 17:35:00
11:55 AM,32.0,21.9,66,30.10,10.0,NE,3.5,-,N/A,,Overcast,40,2013-03-10 17:55:00
12:15 PM,33.1,22.3,65,30.10,10.0,Calm,Calm,-,N/A,Snow,Light Snow,0,2013-03-10 18:15:00
12:35 PM,33.6,21.7,62,30.10,-9999.0,Calm,Calm,-,N/A,,Overcast,0,2013-03-10 18:35:00
12:55 PM,34.9,22.1,60,30.09,10.0,North,4.6,-,N/A,,Mostly Cloudy,350,2013-03-10 18:55:00
1:15 PM,36.9,22.5,56,30.08,10.0,East,9.2,-,N/A,,Mostly Cloudy,90,2013-03-10 19:15:00
1:35 PM,36.7,20.8,53,30.08,10.0,ESE,4.6,-,N/A,,Mostly Cloudy,110,2013-03-10 19:35:00
1:55 PM,36.0,20.7,54,30.07,10.0,ESE,3.5,-,N/A,,Mostly Cloudy,120,2013-03-10 19:55:00
2:15 PM,37.4,20.8,51,30.07,10.0,ENE,8.1,-,N/A,,Overcast,70,2013-03-10 20:15:00
2:35 PM,37.0,20.3,51,30.07,10.0,ENE,3.5,-,N/A,,Mostly Cloudy,70,2013-03-10 20:35:00
2:55 PM,38.7,19.6,46,30.07,10.0,ESE,3.5,-,N/A,,Mostly Cloudy,110,2013-03-10 20:55:00
3:15 PM,38.5,19.8,47,30.08,10.0,North,4.6,-,N/A,,Mostly Cloudy,360,2013-03-10 21:15:00
3:35 PM,39.6,19.6,45,30.09,10.0,East,3.5,-,N/A,,Mostly Cloudy,90,2013-03-10 21:35:00
3:55 PM,40.6,20.1,44,30.09,10.0,East,4.6,-,N/A,,Mostly Cloudy,80,2013-03-10 21:55:00
4:15 PM,41.5,20.5,43,30.09,10.0,East,4.6,-,N/A,,Mostly Cloudy,90,2013-03-10 22:15:00
4:35 PM,41.4,20.3,43,30.09,10.0,NE,4.6,-,N/A,,Scattered Clouds,40,2013-03-10 22:35:00
4:55 PM,41.0,20.1,43,30.09,10.0,ENE,5.8,-,N/A,,Scattered Clouds,60,2013-03-10 22:55:00
5:15 PM,40.1,19.2,43,30.08,10.0,Calm,Calm,-,N/A,,Clear,0,2013-03-10 23:15:00
5:35 PM,40.5,19.2,43,30.09,10.0,East,3.5,-,N/A,,Clear,90,2013-03-10 23:35:00
5:55 PM,40.6,19.2,42,30.08,10.0,ESE,4.6,-,N/A,,Clear,110,2013-03-10 23:55:00
6:15 PM,40.3,18.7,42,30.09,10.0,SE,4.6,-,N/A,,Clear,130,2013-03-11 00:15:00
6:35 PM,40.1,18.9,43,30.09,10.0,Calm,Calm,-,N/A,,Clear,0,2013-03-11 00:35:00
6:55 PM,39.6,18.5,43,30.10,10.0,Calm,Calm,-,N/A,,Scattered Clouds,0,2013-03-11 00:55:00
7:15 PM,39.0,19.2,45,30.11,10.0,ENE,3.5,-,N/A,,Scattered Clouds,60,2013-03-11 01:15:00
7:35 PM,38.5,19.2,46,30.12,10.0,Calm,Calm,-,N/A,,Clear,0,2013-03-11 01:35:00
8:15 PM,38.7,18.5,44,30.13,10.0,Calm,Calm,-,N/A,,Clear,0,2013-03-11 02:15:00
8:35 PM,38.5,18.7,45,30.14,10.0,Calm,Calm,-,N/A,,Clear,0,2013-03-11 02:35:00
8:55 PM,37.8,19.0,47,30.15,10.0,Calm,Calm,-,N/A,,Clear,0,2013-03-11 02:55:00
9:15 PM,38.3,18.9,46,30.15,10.0,Calm,Calm,-,N/A,,Clear,0,2013-03-11 03:15:00
9:35 PM,37.4,19.0,48,30.15,10.0,Calm,Calm,-,N/A,,Clear,0,2013-03-11 03:35:00
9:55 PM,37.8,18.9,47,30.16,10.0,Calm,Calm,-,N/A,,Clear,0,2013-03-11 03:55:00
10:15 PM,37.4,19.0,48,30.17,10.0,Calm,Calm,-,N/A,,Clear,0,2013-03-11 04:15:00
10:35 PM,37.0,18.7,48,30.17,10.0,Calm,Calm,-,N/A,,Clear,0,2013-03-11 04:35:00
10:55 PM,37.4,18.1,46,30.17,10.0,Calm,Calm,-,N/A,,Clear,0,2013-03-11 04:55:00
11:15 PM,37.0,17.4,45,30.17,10.0,Calm,Calm,-,N/A,,Clear,0,2013-03-11 05:15:00
11:35 PM,36.1,17.8,47,30.16,10.0,Calm,Calm,-,N/A,,Clear,0,2013-03-11 05:35:00
11:55 PM,37.0,16.9,44,30.16,10.0,Calm,Calm,-,N/A,,Clear,0,2013-03-11 05:55:00
12:15 AM,35.2,18.7,51,30.17,10.0,West,6.9,-,N/A,,Clear,280,2013-03-11 06:15:00
12:35 AM,34.9,18.9,52,30.18,10.0,West,5.8,-,N/A,,Clear,270,2013-03-11 06:35:00
12:55 AM,37.0,16.9,44,30.18,10.0,Calm,Calm,-,N/A,,Clear,0,2013-03-11 06:55:00